Regional Weather Roundup
Issued by NWS

Home | Current Version | Previous Version | Text Only | Print | Product List | Glossary On
Versions: 1 2 3 4 5 6 7 8 9 10 11 12 13 14 15 16 17 18 19 20 21 22 23 24 25 26 27 28 29 30 31 32 33 34 35 36 37 38 39 40 41 42 43 44 45 46 47 48 49 50
000
ASUS44 KFWD 280003
RWRTX
NORTH TEXAS HOURLY WEATHER ROUNDUP
NATIONAL WEATHER SERVICE FORT WORTH TX
700 PM CDT FRI MAY 27 2016

NOTE: "FAIR" INDICATES FEW OR NO CLOUDS BELOW 12,000 FEET WITH NO
SIGNIFICANT WEATHER AND/OR OBSTRUCTIONS TO VISIBILITY.

TXZ118-119-280100-
DALLAS/FORT WORTH METROPLEX

CITY           SKY/WX    TMP DP  RH WIND       PRES   REMARKS
DFW AIRPORT    CLOUDY    79  60  52 S16       29.71F
6HR MIN TEMP:  72; 6HR MAX TEMP:  82;

DALLAS LOVE    CLOUDY    78  61  55 SE16      29.72F
6HR MIN TEMP:  71; 6HR MAX TEMP:  81; 6HR PCP: TRACE;

FTW MEACHAM    SUNNY     81  61  50 SE15      29.71S
6HR MIN TEMP:  73; 6HR MAX TEMP:  84;

DAL-EXECUTIVE  CLOUDY    75  62  64 S12       29.73S
6HR MIN TEMP:  69; 6HR MAX TEMP:  79; 6HR PCP:  0.02;

FTW-ALLIANCE   CLOUDY    79  64  60 S13G18    29.71S
6HR MIN TEMP:  72; 6HR MAX TEMP:  81;

FTW-NAS-JRB    MOSUNNY   80  62  54 S14       29.72S
6HR MIN TEMP:  73; 6HR MAX TEMP:  81; 6HR PCP: TRACE;

FTW-SPINKS     SUNNY     79  61  53 SE10      29.75S
ARLINGTON      CLOUDY    81  59  47 SE12      29.72F
ADDISON        SUNNY     79  63  57 SE13G21   29.73S
MESQUITE       SUNNY     72  64  78 SE8       29.75S
LANCASTER      PTSUNNY   73  62  66 SE12      29.75F
6HR MIN TEMP:  66; 6HR MAX TEMP:  77;

$$

TXZ091>094-102>105-117-120-121-131>134-280100-
NORTH CENTRAL TEXAS

CITY           SKY/WX    TMP DP  RH WIND       PRES   REMARKS
SHRMAN/DENISON CLOUDY    73  60  64 SE10G17   29.73S
6HR MIN TEMP:  68; 6HR MAX TEMP:  76;

BRIDGEPORT     SUNNY     79  67  67 S12       29.72S
6HR MIN TEMP:  73; 6HR MAX TEMP:  82;

DECATUR        MOSUNNY   79  63  58 S13G18    29.72S
6HR MIN TEMP:  71; 6HR MAX TEMP:  81; 6HR PCP:  0.03;

DENTON         LGT RAIN  79  64  60 S16       29.70S
6HR MIN TEMP:  71; 6HR MAX TEMP:  81; 6HR PCP: TRACE;

MCKINNEY       CLOUDY    74  64  71 SE12      29.72F
6HR MIN TEMP:  68; 6HR MAX TEMP:  78;

ROCKWALL       CLOUDY    72  64  75 SE10G17   29.74S
6HR MIN TEMP:  67; 6HR MAX TEMP:  78;

TERRELL        PTSUNNY   70  64  81 SE12      29.76R
6HR MIN TEMP:  68; 6HR MAX TEMP:  75;

WAXAHACHIE     CLOUDY    75  64  69 S13       29.75S
6HR MIN TEMP:  69; 6HR MAX TEMP:  78;

CLEBURNE       SUNNY     79  63  57 SE13      29.75F
GRANBURY       SUNNY     81  63  54 SE9       29.74S
6HR MIN TEMP:  74; 6HR MAX TEMP:  83;

$$

TXZ083>090-098>101-113>116-127>130-139>142-154-155-280100-
WESTERN NORTH TEXAS

CITY           SKY/WX    TMP DP  RH WIND       PRES   REMARKS
WICHITA FALLS  PTSUNNY   83  67  58 S18G24    29.65R
6HR MIN TEMP:  80; 6HR MAX TEMP:  88;

WF-KICKAPOO    MOSUNNY   84  66  53 S20G29    29.66R
6HR MIN TEMP:  80; 6HR MAX TEMP:  89;

VERNON         SUNNY     89  29  11 CALM      29.65S
6HR MIN TEMP:  79; 6HR MAX TEMP:  91;

ABILENE        SUNNY     85  44  23 SW8       29.71S
6HR MIN TEMP:  78; 6HR MAX TEMP:  87;

MINERAL WELLS  SUNNY     78  66  66 S14       29.71S
6HR MIN TEMP:  72; 6HR MAX TEMP:  81;

STEPHENVILLE   SUNNY     78  64  60 SE9       29.77S
6HR MIN TEMP:  72; 6HR MAX TEMP:  79;

COMANCHE       SUNNY     77  67  72 SE9       29.74S
6HR MIN TEMP:  73; 6HR MAX TEMP:  80; 6HR PCP:  0.45;

BROWNWOOD      SUNNY     77  68  73 SE14      29.73S
COLEMAN        SUNNY     81  65  58 SE9       29.73S
6HR MIN TEMP:  74; 6HR MAX TEMP:  83;

$$

TXZ143>147-156>162-174-175-280100-
CENTRAL TEXAS

CITY           SKY/WX    TMP DP  RH WIND       PRES   REMARKS
WACO           SUNNY     75  63  66 E13       29.74S
6HR MIN TEMP:  69; 6HR MAX TEMP:  80;

WACO-MCGREGOR  SUNNY    N/A N/A N/A E9          N/A  THUNDER
                                      6HR PCP: TRACE;

HILLSBORO      CLOUDY    74  63  70 SE10      29.75S
6HR MIN TEMP:  67; 6HR MAX TEMP:  78;

CORSICANA      CLOUDY    70  64  81 SE12      29.76S
6HR MIN TEMP:  69; 6HR MAX TEMP:  74;

MEXIA          CLOUDY    67  65  93 SE10G18   29.74S
6HR MIN TEMP:  65; 6HR MAX TEMP:  73;

HEARNE         CLOUDY    68  65  91 E7        29.75R
6HR MIN TEMP:  66; 6HR MAX TEMP:  69; 6HR PCP:  0.02;

TEMPLE         SUNNY     73  66  78 E9        29.74F
6HR MIN TEMP:  67; 6HR MAX TEMP:  77; 6HR PCP: TRACE;

KILLEEN        NOT AVBL
KILLEEN-SKYLRK SUNNY     75  66  73 SE8       29.74F
6HR MIN TEMP:  66; 6HR MAX TEMP:  78;

HAMILTON       SUNNY     78  65  65 SE14      29.76S
6HR MIN TEMP:  71; 6HR MAX TEMP:  79;

LAMPASAS       PTSUNNY   76  70  82 SE9       29.75R
6HR MIN TEMP:  71; 6HR MAX TEMP:  78;

$$

TXZ095>097-106>112-122>126-135>138-148>153-164>167-280100-
EAST TEXAS

CITY           SKY/WX    TMP DP  RH WIND       PRES   REMARKS
PARIS          CLOUDY    70  57  64 S8        29.75F
6HR MIN TEMP:  68; 6HR MAX TEMP:  72;

SULPHUR SPRNGS CLOUDY    69  64  85 S5        29.77S
6HR MIN TEMP:  69; 6HR MAX TEMP:  72;

MOUNT PLEASANT CLOUDY    67  66  98 CALM      29.76S
6HR MIN TEMP:  66; 6HR MAX TEMP:  68;

MINEOLA        CLOUDY    68  64  88 CALM      29.76R
TYLER          CLOUDY    68  64  87 S12       29.74S
6HR MIN TEMP:  67; 6HR MAX TEMP:  68; 6HR PCP: TRACE;

LONGVIEW       CLOUDY    67  65  93 S7        29.72S
6HR MIN TEMP:  66; 6HR MAX TEMP:  67; 6HR PCP:  0.13;

ATHENS         CLOUDY    66  66 100 SE6       29.73S
PALESTINE      CLOUDY    68  66  94 SE8       29.76S
JACKSONVILLE   CLOUDY    66  66  98 S12G17    29.76S
CENTER         LGT RAIN  69  67  95 E20G35    29.72F
6HR MIN TEMP:  68; 6HR MAX TEMP:  69; 6HR PCP:  0.02;

NACOGDOCHES    CLOUDY    66  64  94 SW13      29.76S
6HR MIN TEMP:  64; 6HR MAX TEMP:  66; 6HR PCP:  0.48;

LUFKIN         CLOUDY    66  65  96 SE9G24    29.75F
6HR MIN TEMP:  65; 6HR MAX TEMP:  68; 6HR PCP:  2.76;

$$

SUPPLEMENTAL OBSERVATIONS (CENTRAL)

CITY           SKY/WX    TMP DP  RH WIND       PRES   REMARKS
$$

SUPPLEMENTAL OBSERVATIONS (WEST)

CITY           SKY/WX    TMP DP  RH WIND       PRES   REMARKS
$$

SUPPLEMENTAL OBSERVATIONS (EAST)

CITY           SKY/WX    TMP DP  RH WIND       PRES   REMARKS
$$

SUPPLEMENTAL OBSERVATIONS ARE A COLLECTION OF AUTOMATED INSTRUMENTS
THAT ARE MAINTAINED BY A VARIETY OF FEDERAL AND STATE AGENCIES.
CERTAIN ELEMENTS...SUCH AS HUMIDITY VALUES AND SUSTAINED WIND
SPEEDS...MAY BE APPROXIMATED.





USA.gov is the U.S. government's official web portal to all federal, state and local government web resources and services.